Winona, MN

3:32 PM CST on November 22, 2017 (GMT -0600)
Winona Municipal-Conrad

Weather History for KONA - April, 2014

Change the Weather History Date:

Tuesday, April 22, 2014

  Actual Average Record
Temperature  
Mean Temperature 48 °F -  
Max Temperature 59 °F 62 °F 89 °F (1980)
Min Temperature 37 °F 42 °F 25 °F (1993)
Degree Days  
Heating Degree Days 17    
Moisture  
Dew Point 29 °F    
Average Humidity 51    
Maximum Humidity 75    
Minimum Humidity 31    
Precipitation  
Precipitation 0.00 in - - ()
Sea Level Pressure  
Sea Level Pressure 30.07 in    
Wind  
Wind Speed 9 mph (NNW)    
Max Wind Speed 16 mph    
Max Gust Speed 31 mph    
Visibility 10 miles    
Events      
Averages and records for this station are not official NWS values.
T = Trace of Precipitation, MM = Missing Value Source: NWS Daily Summary

Daily Weather History Graph

Daily Weather History Graph

Search for Another Location

Airport or City:

Trip Planner

Search our weather history database for the weather conditions in past years. The results will help you decide how hot, cold, wet, or windy it might be!

Date:

Astronomy

Apr. 22, 2014 Rise Set
Actual Time 6:11 AM CDT 7:59 PM CDT
Civil Twilight 5:41 AM CDT 8:30 PM CDT
Nautical Twilight 5:03 AM CDT 9:08 PM CDT
Astronomical Twilight 4:23 AM CDT 9:48 PM CDT
Moon 2:15 AM CDT 12:47 PM CDT
Length of Visible Light 14h 49m
Length of Day
13h 47m
Last Quarter, 46% of the Moon is Illuminated
Apr 22
Last Quarter
Apr 29
New
May 6
First Quarter
May 14
Full
May 21
Last Quarter

Hourly Weather History & Observations

Time (CDT) Temp. Windchill Dew Point Humidity Pressure Visibility Wind Dir Wind Speed Gust Speed Precip Events Conditions
12:15 AM 48.2 °F - 32.0 °F 54% 30.02 in 10.0 mi NW 10.4 mph - N/A   Clear
12:35 AM 48.2 °F - 32.0 °F 54% 30.03 in 10.0 mi North 11.5 mph 18.4 mph N/A   Clear
12:54 AM 48.2 °F - 33.8 °F 58% 30.03 in 10.0 mi NNW 16.1 mph 24.2 mph N/A   Clear
1:15 AM 46.4 °F 40.4 °F 32.0 °F 57% 30.04 in 10.0 mi NNW 13.8 mph 31.1 mph N/A   Clear
1:35 AM 44.6 °F 40.2 °F 32.0 °F 61% 30.05 in 10.0 mi North 8.1 mph 17.3 mph N/A   Clear
1:54 AM 42.8 °F 37.5 °F 30.2 °F 61% 30.05 in 10.0 mi NNW 9.2 mph 16.1 mph N/A   Clear
2:14 AM 42.8 °F 37.5 °F 30.2 °F 61% 30.05 in 10.0 mi NNW 9.2 mph - N/A   Clear
2:35 AM 42.8 °F 37.0 °F 30.2 °F 61% 30.05 in 10.0 mi NNW 10.4 mph - N/A   Clear
2:54 AM 41.0 °F 36.4 °F 30.2 °F 65% 30.05 in 10.0 mi NNW 6.9 mph - N/A   Clear
3:14 AM 41.0 °F 36.4 °F 30.2 °F 65% 30.05 in 10.0 mi NW 6.9 mph - N/A   Clear
3:35 AM 41.0 °F 35.8 °F 30.2 °F 65% 30.06 in 10.0 mi NNW 8.1 mph - N/A   Clear
3:54 AM 41.0 °F 36.4 °F 30.2 °F 65% 30.07 in 10.0 mi NNW 6.9 mph - N/A   Clear
4:14 AM 41.0 °F 34.7 °F 30.2 °F 65% 30.07 in 10.0 mi NNW 10.4 mph - N/A   Clear
4:35 AM 41.0 °F 38.0 °F 30.2 °F 65% 30.07 in 10.0 mi North 4.6 mph - N/A   Clear
4:54 AM 41.0 °F 35.2 °F 30.2 °F 65% 30.08 in 10.0 mi NNW 9.2 mph - N/A   Clear
5:14 AM 39.2 °F 35.0 °F 30.2 °F 70% 30.08 in 10.0 mi NNW 5.8 mph - N/A   Clear
5:35 AM 37.4 °F 32.1 °F 30.2 °F 75% 30.08 in 10.0 mi NNW 6.9 mph - N/A   Clear
5:54 AM 37.4 °F 32.8 °F 30.2 °F 75% 30.09 in 10.0 mi North 5.8 mph - N/A   Clear
6:14 AM 37.4 °F 31.4 °F 30.2 °F 75% 30.08 in 10.0 mi NNW 8.1 mph - N/A   Clear
6:35 AM 37.4 °F 32.1 °F 30.2 °F 75% 30.09 in 10.0 mi NNW 6.9 mph - N/A   Clear
6:54 AM 41.0 °F 35.8 °F 30.2 °F 65% 30.09 in 10.0 mi NNW 8.1 mph - N/A   Clear
7:14 AM 41.0 °F 37.1 °F 28.4 °F 61% 30.09 in 10.0 mi North 5.8 mph - N/A   Clear
7:35 AM 41.0 °F 37.1 °F 28.4 °F 61% 30.09 in 10.0 mi North 5.8 mph - N/A   Clear
7:54 AM 41.0 °F 37.1 °F 28.4 °F 61% 30.09 in 10.0 mi North 5.8 mph - N/A   Clear
8:14 AM 42.8 °F 40.1 °F 30.2 °F 61% 30.09 in 10.0 mi North 4.6 mph - N/A   Clear
8:35 AM 42.8 °F 38.0 °F 28.4 °F 57% 30.09 in 10.0 mi NNE 8.1 mph - N/A   Clear
8:54 AM 42.8 °F 37.5 °F 28.4 °F 57% 30.09 in 10.0 mi North 9.2 mph - N/A   Clear
9:14 AM 46.4 °F 43.5 °F 30.2 °F 53% 30.09 in 10.0 mi North 5.8 mph - N/A   Clear
9:35 AM 46.4 °F 42.4 °F 30.2 °F 53% 30.10 in 10.0 mi North 8.1 mph - N/A   Clear
9:54 AM 48.2 °F - 32.0 °F 54% 30.09 in 10.0 mi NNW 11.5 mph - N/A   Clear
10:14 AM 48.2 °F - 30.2 °F 50% 30.10 in 10.0 mi NNW 8.1 mph - N/A   Clear
10:35 AM 48.2 °F - 30.2 °F 50% 30.10 in 10.0 mi WNW 9.2 mph 19.6 mph N/A   Clear
10:54 AM 48.2 °F - 28.4 °F 46% 30.10 in 10.0 mi NW 12.7 mph 18.4 mph N/A   Clear
11:14 AM 50.0 °F - 28.4 °F 43% 30.10 in 10.0 mi NNW 11.5 mph 17.3 mph N/A   Clear
11:35 AM 51.8 °F - 30.2 °F 44% 30.10 in 10.0 mi NW 13.8 mph 18.4 mph N/A   Clear
11:54 AM 51.8 °F - 30.2 °F 44% 30.09 in 10.0 mi NNW 13.8 mph - N/A   Clear
12:14 PM 53.6 °F - 30.2 °F 41% 30.09 in 10.0 mi NW 12.7 mph 20.7 mph N/A   Clear
12:35 PM 53.6 °F - 30.2 °F 41% 30.08 in 10.0 mi NW 13.8 mph 23.0 mph N/A   Clear
12:54 PM 53.6 °F - 28.4 °F 38% 30.08 in 10.0 mi NW 15.0 mph - N/A   Clear
1:14 PM 53.6 °F - 28.4 °F 38% 30.07 in 10.0 mi NNW 15.0 mph 20.7 mph N/A   Clear
1:35 PM 55.4 °F - 28.4 °F 36% 30.07 in 10.0 mi NW 13.8 mph 21.9 mph N/A   Clear
1:54 PM 55.4 °F - 26.6 °F 33% 30.06 in 10.0 mi WNW 15.0 mph 21.9 mph N/A   Clear
2:14 PM 55.4 °F - 28.4 °F 36% 30.06 in 10.0 mi NNW 13.8 mph 19.6 mph N/A   Clear
2:35 PM 57.2 °F - 28.4 °F 33% 30.05 in 10.0 mi NNW 13.8 mph 21.9 mph N/A   Clear
2:54 PM 55.4 °F - 28.4 °F 36% 30.05 in 10.0 mi NNW 13.8 mph 18.4 mph N/A   Clear
3:14 PM 59.0 °F - 28.4 °F 31% 30.05 in 10.0 mi NW 16.1 mph 23.0 mph N/A   Clear
3:35 PM 59.0 °F - 28.4 °F 31% 30.05 in 10.0 mi NNW 13.8 mph 20.7 mph N/A   Clear
3:54 PM 59.0 °F - 28.4 °F 31% 30.04 in 10.0 mi NW 13.8 mph 21.9 mph N/A   Clear
4:14 PM 59.0 °F - 28.4 °F 31% 30.04 in 10.0 mi NW 16.1 mph 21.9 mph N/A   Clear
4:35 PM 59.0 °F - 28.4 °F 31% 30.04 in 10.0 mi NW 12.7 mph 17.3 mph N/A   Clear
4:54 PM 59.0 °F - 28.4 °F 31% 30.03 in 10.0 mi North 6.9 mph 24.2 mph N/A   Clear
5:15 PM 57.2 °F - 28.4 °F 33% 30.03 in 10.0 mi North 5.8 mph - N/A   Clear
5:34 PM 59.0 °F - 28.4 °F 31% 30.03 in 10.0 mi North 6.9 mph - N/A   Clear
5:54 PM 55.4 °F - 26.6 °F 33% 30.03 in 10.0 mi North 5.8 mph - N/A   Clear
6:15 PM 55.4 °F - 24.8 °F 31% 30.04 in 10.0 mi NE 8.1 mph - N/A   Clear
6:34 PM 55.4 °F - 24.8 °F 31% 30.04 in 10.0 mi NE 9.2 mph - N/A   Clear
6:54 PM 55.4 °F - 26.6 °F 33% 30.05 in 10.0 mi NE 4.6 mph - N/A   Clear
7:15 PM 53.6 °F - 24.8 °F 33% 30.04 in 10.0 mi North 4.6 mph - N/A   Clear
7:34 PM 53.6 °F - 26.6 °F 35% 30.04 in 10.0 mi North 4.6 mph - N/A   Clear
7:54 PM 53.6 °F - 26.6 °F 35% 30.05 in 10.0 mi NE 3.5 mph - N/A   Clear
8:15 PM 51.8 °F - 24.8 °F 35% 30.06 in 10.0 mi Calm Calm - N/A   Clear
8:34 PM 51.8 °F - 24.8 °F 35% 30.06 in 10.0 mi Calm Calm - N/A   Clear
8:54 PM 50.0 °F - 28.4 °F 43% 30.07 in 10.0 mi Calm Calm - N/A   Clear
9:15 PM 48.2 °F - 32.0 °F 54% 30.08 in 10.0 mi Calm Calm - N/A   Clear
9:34 PM 46.4 °F - 30.2 °F 53% 30.09 in 10.0 mi Calm Calm - N/A   Clear
9:54 PM 44.6 °F - 30.2 °F 57% 30.09 in 10.0 mi Calm Calm - N/A   Clear
10:15 PM 42.8 °F - 30.2 °F 61% 30.10 in 10.0 mi Calm Calm - N/A   Clear
10:34 PM 42.8 °F - 30.2 °F 61% 30.10 in 10.0 mi Calm Calm - N/A   Clear
10:54 PM 41.0 °F - 32.0 °F 70% 30.11 in 10.0 mi Calm Calm - N/A   Clear
11:15 PM 41.0 °F - 32.0 °F 70% 30.11 in 10.0 mi Calm Calm - N/A   Clear
11:34 PM 41.0 °F - 32.0 °F 70% 30.11 in 10.0 mi Calm Calm - N/A   Clear
11:54 PM 41.0 °F 39.0 °F 32.0 °F 70% 30.12 in 10.0 mi SW 3.5 mph - N/A   Clear